コルレヴィッチ彗星

203P/Korlevic (2010)

English version
Home page
Total 6,336 html files since Dec. 4, 1995
Updated on October 12, 2008

---------------------------------------------------------------------

・ プロフィール

符号 203P/2008 R4
検出日 2008年9月3日
検出光度 20.3等
検出者 T. H. Bressi (Spacewatch), G. V. Williams (Minor Planet Center)

・ 軌道要素

Epoch 2010 Feb. 13.0 TT = JDT 2455240.5
T 2010 Feb. 8.19837 TT                                  MPC
q   3.1821246            (2000.0)            P               Q
n   0.09841083     Peri.  154.54431     +0.08471186     -0.99521923
a   4.6463021      Node   290.56503     +0.90507905     +0.09725760
e   0.3151275      Incl.    2.97583     +0.41672030     -0.00892433
P  10.02

・ 星図

・ 光度変化

        m1 = 5.0 + 5 logΔ + 18.0 log r(t - 300)

---------------------------------------------------------------------

軌道要素はM.P.E.C. 2008-R53に掲載されたものです。
星図は StellaNavigator Ver.2.0 for Windows (アストロアーツ編著 / アスキー出版局刊) で作成したものです。
光度グラフはComet for Windowsで作成したものです。

---------------------------------------------------------------------

Copyright(C) 1995-2008 Seiichi Yoshida (comet@aerith.net). All rights reserved.